This is the latest recevied weather packets stored in our database for station/object WX1N. If no packets are shown the sender has not sent any weather packets the latest 10 day(s).
| Time | Temp. | Humidity | Pressure | Rain* | Wind** | Luminosity | Snow |
|---|---|---|---|---|---|---|---|
| 1777659303 | 15.56° C | 42% | 1008.8 hPa | 0 mm | - | - | - |
| 1777659004 | 15.56° C | 36% | 1008.8 hPa | 0 mm | - | - | - |
| 1777658703 | 16.11° C | 39% | 1008.8 hPa | 0 mm | - | - | - |
| 1777658404 | 15.56° C | 36% | 1008.7 hPa | 0 mm | - | - | - |
| 1777658103 | 15.56° C | 38% | 1008.8 hPa | 0 mm | - | - | - |
| 1777657804 | 15.56° C | 36% | 1008.8 hPa | 0 mm | - | - | - |
| 1777657503 | 15° C | 45% | 1008.8 hPa | 0 mm | - | - | - |
| 1777657204 | 14.44° C | 44% | 1008.7 hPa | 0 mm | - | - | - |
| 1777656904 | 14.44° C | 41% | 1008.6 hPa | 0 mm | - | - | - |
| 1777656603 | 14.44° C | 46% | 1008.7 hPa | 0 mm | - | - | - |
| 1777656304 | 14.44° C | 44% | 1008.8 hPa | 0 mm | - | - | - |
| 1777656003 | 14.44° C | 43% | 1008.7 hPa | 0 mm | - | - | - |
| 1777655704 | 14.44° C | 41% | 1008.7 hPa | 0 mm | - | - | - |
| 1777655403 | 15.56° C | 43% | 1008.7 hPa | 0 mm | - | - | - |
| 1777655104 | 15° C | 46% | 1008.8 hPa | 0 mm | - | - | - |
| 1777654804 | 14.44° C | 43% | 1008.7 hPa | 0 mm | - | - | - |
| 1777654503 | 14.44° C | 47% | 1008.8 hPa | 0 mm | - | - | - |
| 1777654204 | 14.44° C | 44% | 1008.9 hPa | 0 mm | - | - | - |
| 1777653904 | 14.44° C | 44% | 1009 hPa | 0 mm | - | - | - |
| 1777653603 | 14.44° C | 51% | 1008.9 hPa | 0 mm | - | - | - |
| 1777653304 | 13.89° C | 48% | 1008.9 hPa | 0 mm | - | - | - |
| 1777653003 | 13.33° C | 53% | 1008.9 hPa | 0 mm | - | - | - |
| 1777652704 | 13.33° C | 47% | 1008.9 hPa | 0 mm | - | - | - |
| 1777652404 | 13.33° C | 53% | 1009 hPa | 0 mm | - | - | - |
| 1777652103 | 12.78° C | 55% | 1009.1 hPa | 0 mm | - | - | - |
* Rain latest hour (hover to see other rain measurements)
** Current wind speed in m/s (hover to see current wind gust speed)